Location: Gleizolles
(44.4833°N, 6.7667°E)
Time: 13:08:03
(UTC+00:00)

deb Explorer IX - Pass Details

Date: 01 July 2024
Orbit: 510 x 878 km, 38.7° (Epoch: 21 July)

Event Time Altitude Azimuth Distance (km) Brightness Sun altitude
Rises 06:07:16 0° 255° (WSW) 2,614 ? 21.2°
Reaches altitude 10° 06:09:31 10° 247° (WSW) 1,746 ? 21.6°
Maximum altitude 06:13:12 37° 179° (S) 844 ? 22.2°
Drops below altitude 10° 06:17:08 10° 111° (ESE) 1,867 ? 22.9°
Sets 06:19:37 0° 103° (ESE) 2,824 ? 23.3°
